カタログに戻る

STARLINK-6181

運用中通信VLEO
NORAD 56888·PAYLOAD·🇺🇸 United States

打ち上げ Jun 12, 2023 から Cape Canaveral Space Force Station

Loading…

次のパス (今後24時間)

TLE

最新Source: CelesTrak SupGP

元期: Sep 15, 2026, 01:34 UTC

1 56888C 23083N   26258.06576389  .00044584  00000+0  16149-2 0  2583
2 56888  43.0029  99.2881 0001736 279.1469 344.5236 15.27555052    12

AllMySatでSTARLINK-6181をリアルタイム追跡

Download on the App Store